Temp
-9 -9 -9 -9 -9 -9 -8 -8 -8 -8 -8 -8 -8 -8 -8 -8 -8 -8 -8 -8 -8 -7 -8 -8 -8 -8 -8 -8 -8 -8 -9 -9 -9 -10 -10 -10 -11 -11 -11 -12 -12 -13 -13 -10
-10 -9 -9 -9 -9 -9 -9 -9 -8 -8 -8 -8 -8 -8 -8 -8 -8 -8 -8 -8 -8 -8 -8 -8 -8 -8 -8 -8 -9 -9 -9 -9 -9 -10 -10 -10 -9 -10 -12 -13 -13 -12 -14 -12
-10 -10 -9 -9 -9 -9 -9 -9 -9 -9 -9 -8 -9 -9 -9 -9 -9 -9 -9 -9 -9 -8 -8 -8 -8 -8 -9 -9 -10 -10 -9 -10 -10 -11 -12 -12 -12 -13 -14 -14 -14 -14 -13 -14
-11 -11 -10 -10 -9 -10 -10 -9 -9 -9 -9 -9 -9 -9 -9 -9 -9 -9 -9 -9 -9 -9 -9 -9 -9 -9 -10 -10 -10 -11 -11 -11 -11 -11 -12 -12 -12 -13 -14 -14 -14 -14 -14 -14
-11 -11 -11 -10 -10 -10 -10 -10 -10 -10 -10 -10 -9 -9 -9 -10 -10 -10 -9 -9 -9 -9 -9 -10 -10 -10 -10 -11 -11 -11 -11 -11 -11 -11 -12 -12 -12 -13 -14 -14 -14 -14 -15 -16
-12 -11 -11 -11 -11 -10 -10 -10 -10 -10 -10 -10 -10 -10 -10 -10 -10 -10 -10 -10 -10 -10 -10 -11 -11 -11 -12 -12 -13 -12 -12 -12 -12 -12 -12 -13 -14 -14 -14 -14 -15 -16 -17 -17
-12 -12 -12 -12 -11 -11 -11 -11 -11 -11 -11 -11 -10 -10 -10 -11 -11 -11 -11 -11 -11 -11 -11 -11 -12 -12 -12 -13 -13 -14 -14 -13 -13 -13 -14 -14 -15 -15 -15 -15 -16 -18 -18 -19
-13 -12 -12 -12 -12 -12 -11 -11 -11 -11 -11 -11 -11 -11 -11 -11 -11 -11 -11 -11 -11 -12 -12 -12 -13 -12 -12 -13 -14 -14 -14 -14 -15 -15 -15 -15 -15 -15 -16 -16 -15 -18 -18 -19
-13 -13 -13 -13 -13 -12 -12 -12 -12 -12 -12 -12 -12 -12 -11 -11 -11 -12 -12 -12 -12 -12 -13 -13 -14 -14 -14 -14 -15 -15 -15 -15 -16 -16 -16 -16 -16 -16 -16 -16 -16 -18 -20 -22
-13 -13 -13 -13 -13 -13 -13 -13 -13 -13 -12 -12 -12 -12 -12 -12 -12 -12 -12 -12 -13 -13 -14 -14 -14 -14 -14 -15 -15 -16 -16 -16 -16 -16 -17 -17 -16 -17 -17 -18 -19 -19 -22 -24
-14 -14 -14 -13 -13 -13 -13 -13 -13 -13 -13 -13 -13 -13 -13 -13 -13 -13 -13 -13 -14 -15 -15 -15 -15 -15 -15 -16 -16 -16 -17 -17 -17 -17 -17 -18 -18 -18 -21 -21 -19 -23 -24 -25
-14 -14 -14 -14 -14 -13 -13 -13 -13 -13 -13 -13 -14 -14 -14 -14 -14 -14 -14 -14 -15 -15 -16 -16 -16 -16 -16 -16 -16 -17 -17 -17 -17 -17 -18 -17 -18 -19 -20 -21 -21 -22 -24 -25
-15 -15 -14 -14 -14 -14 -14 -14 -14 -14 -14 -14 -14 -14 -15 -15 -15 -15 -15 -15 -16 -16 -17 -17 -17 -17 -16 -16 -17 -17 -18 -17 -18 -18 -18 -18 -19 -19 -19 -22 -23 -24 -25 -25
-16 -15 -15 -15 -15 -14 -14 -14 -15 -15 -14 -14 -15 -15 -15 -15 -16 -16 -16 -16 -17 -17 -17 -17 -17 -17 -17 -17 -17 -18 -18 -18 -18 -18 -18 -17 -19 -20 -20 -20 -22 -24 -24 -24
-16 -16 -16 -16 -16 -15 -15 -15 -15 -15 -15 -15 -15 -15 -16 -16 -16 -17 -17 -18 -18 -18 -17 -18 -17 -18 -18 -18 -18 -18 -18 -18 -18 -18 -18 -19 -20 -20 -22 -22 -24 -24 -24 -23
-17 -17 -16 -16 -16 -16 -16 -16 -16 -15 -16 -15 -15 -15 -16 -17 -17 -18 -18 -19 -19 -18 -18 -18 -18 -18 -18 -18 -18 -18 -18 -18 -19 -18 -19 -20 -20 -21 -22 -23 -24 -23 -23 -23
-18 -18 -18 -17 -17 -16 -16 -15 -16 -17 -17 -16 -16 -16 -17 -17 -18 -19 -20 -20 -20 -19 -18 -18 -18 -19 -18 -18 -19 -18 -18 -18 -19 -19 -19 -20 -21 -21 -22 -23 -24 -24 -24 -24
-19 -19 -19 -19 -17 -18 -17 -18 -18 -18 -18 -17 -16 -16 -16 -18 -19 -19 -20 -20 -19 -19 -19 -18 -18 -18 -19 -19 -19 -19 -19 -18 -19 -19 -20 -21 -21 -22 -23 -23 -24 -23 -24 -23
-20 -20 -20 -19 -19 -18 -18 -19 -19 -19 -19 -18 -17 -18 -18 -18 -19 -19 -19 -19 -19 -18 -18 -18 -18 -18 -19 -20 -19 -19 -19 -19 -19 -19 -20 -21 -22 -22 -23 -23 -24 -24 -23 -23
-21 -21 -20 -20 -19 -19 -20 -20 -20 -20 -19 -17 -17 -17 -18 -19 -19 -20 -20 -19 -19 -18 -18 -18 -18 -18 -19 -20 -19 -19 -19 -19 -19 -20 -21 -21 -22 -22 -23 -23 -23 -24 -23 -24
-21 -21 -20 -20 -20 -20 -20 -21 -21 -20 -19 -18 -18 -18 -19 -20 -20 -20 -20 -19 -19 -19 -18 -18 -18 -19 -20 -20 -20 -19 -19 -20 -20 -21 -22 -22 -22 -22 -23 -24 -24 -24 -24 -25
-22 -22 -22 -22 -22 -21 -21 -21 -20 -19 -19 -18 -18 -19 -20 -21 -20 -20 -20 -20 -20 -19 -19 -19 -19 -21 -21 -20 -20 -20 -20 -20 -21 -22 -22 -22 -23 -23 -24 -24 -24 -24 -24 -25
-23 -23 -23 -22 -23 -22 -21 -19 -19 -18 -19 -19 -20 -21 -21 -21 -21 -21 -21 -20 -20 -20 -20 -20 -21 -21 -20 -20 -20 -20 -20 -21 -21 -22 -22 -22 -23 -24 -24 -24 -24 -24 -25 -25
-23 -24 -24 -23 -23 -21 -20 -20 -20 -20 -20 -20 -21 -21 -22 -21 -22 -22 -21 -21 -21 -20 -20 -20 -21 -21 -21 -21 -20 -20 -21 -21 -22 -22 -23 -23 -23 -24 -24 -24 -24 -24 -25 -25
-23 -24 -25 -24 -22 -22 -21 -21 -21 -20 -20 -20 -21 -22 -22 -22 -22 -22 -22 -21 -21 -20 -21 -22 -21 -21 -21 -21 -20 -20 -21 -21 -22 -23 -23 -23 -24 -24 -24 -24 -24 -24 -25 -25
-25 -25 -25 -24 -23 -23 -22 -21 -21 -21 -21 -21 -22 -22 -22 -22 -22 -22 -21 -21 -20 -22 -22 -22 -22 -21 -21 -21 -21 -21 -22 -22 -23 -23 -23 -24 -24 -24 -24 -24 -24 -24 -25 -25
-27 -25 -25 -24 -24 -24 -23 -23 -22 -21 -22 -22 -23 -22 -22 -23 -22 -21 -21 -21 -23 -23 -23 -22 -22 -22 -22 -21 -21 -22 -22 -23 -23 -23 -24 -24 -25 -25 -25 -24 -24 -24 -25 -25
Height
5858 5859 5858 5858 5858 5858 5858 5857 5857 5856 5855 5856 5854 5854 5853 5852 5851 5850 5850 5848 5847 5845 5842 5840 5836 5833 5828 5825 5821 5816 5813 5806 5802 5796 5792 5787 5779 5771 5765 5757 5752 5738 5724 5734
5856 5856 5856 5856 5856 5856 5856 5856 5856 5855 5854 5854 5853 5852 5851 5850 5848 5847 5846 5844 5842 5839 5836 5834 5830 5826 5821 5816 5812 5807 5802 5796 5791 5784 5782 5775 5767 5759 5751 5746 5735 5732 5709 5709
5853 5853 5853 5853 5853 5853 5853 5853 5853 5852 5852 5851 5850 5849 5848 5846 5844 5843 5841 5838 5836 5833 5830 5826 5822 5818 5815 5809 5804 5798 5792 5788 5781 5776 5771 5763 5756 5749 5740 5728 5718 5708 5701 5682
5849 5849 5850 5850 5849 5849 5849 5848 5848 5847 5847 5846 5845 5844 5843 5841 5839 5837 5834 5831 5829 5826 5823 5818 5813 5808 5803 5798 5794 5789 5784 5778 5770 5764 5759 5750 5743 5737 5731 5717 5704 5686 5686 5669
5844 5844 5844 5845 5844 5844 5843 5843 5843 5842 5842 5841 5840 5838 5836 5835 5832 5830 5827 5825 5821 5818 5814 5809 5804 5799 5794 5789 5783 5778 5772 5766 5759 5754 5747 5737 5731 5723 5714 5702 5689 5675 5665 5657
5838 5838 5838 5838 5838 5838 5837 5837 5836 5836 5836 5834 5833 5831 5829 5827 5825 5823 5820 5816 5813 5809 5805 5800 5795 5789 5784 5780 5774 5767 5761 5753 5746 5742 5732 5722 5715 5708 5697 5690 5674 5658 5649 5639
5832 5831 5831 5831 5831 5831 5831 5830 5829 5829 5828 5827 5825 5823 5822 5820 5817 5815 5811 5808 5803 5800 5795 5790 5785 5780 5774 5769 5763 5757 5749 5741 5732 5728 5720 5711 5700 5689 5680 5676 5661 5647 5633 5623
5823 5824 5823 5823 5824 5823 5823 5822 5821 5820 5819 5818 5817 5815 5813 5810 5808 5805 5802 5798 5794 5790 5785 5781 5775 5770 5765 5760 5754 5746 5737 5728 5720 5713 5706 5701 5693 5674 5665 5656 5657 5631 5616 5604
5814 5814 5814 5815 5815 5814 5813 5813 5813 5812 5811 5810 5807 5805 5803 5800 5797 5795 5791 5787 5784 5780 5774 5770 5764 5757 5751 5745 5739 5735 5727 5717 5710 5700 5688 5684 5675 5667 5652 5639 5634 5617 5602 5590
5804 5804 5804 5805 5805 5804 5804 5803 5803 5802 5800 5799 5797 5795 5792 5789 5786 5784 5782 5779 5774 5769 5764 5759 5754 5748 5742 5736 5730 5723 5715 5704 5699 5689 5676 5670 5658 5646 5638 5624 5612 5602 5590 5576
5794 5794 5793 5792 5793 5793 5792 5791 5790 5789 5788 5787 5786 5784 5781 5778 5775 5772 5770 5768 5763 5759 5754 5749 5743 5737 5731 5725 5720 5713 5706 5697 5691 5681 5668 5653 5643 5638 5618 5608 5600 5584 5575 5563
5780 5782 5782 5781 5780 5780 5779 5778 5777 5776 5775 5775 5773 5771 5769 5766 5763 5762 5759 5757 5753 5747 5742 5738 5733 5728 5720 5715 5711 5703 5696 5688 5681 5668 5661 5648 5637 5620 5611 5595 5582 5571 5559 5551
5765 5766 5767 5768 5767 5765 5765 5764 5763 5763 5761 5760 5759 5758 5756 5753 5751 5749 5748 5746 5741 5738 5732 5727 5723 5718 5710 5705 5700 5694 5681 5676 5668 5658 5651 5634 5623 5610 5595 5581 5570 5560 5549 5537
5750 5751 5751 5751 5752 5751 5750 5751 5749 5747 5746 5746 5746 5744 5743 5741 5739 5737 5734 5733 5729 5726 5722 5717 5712 5707 5699 5696 5691 5686 5670 5666 5657 5648 5638 5628 5609 5597 5585 5573 5560 5549 5538 5525
5733 5733 5735 5735 5736 5737 5736 5737 5735 5733 5733 5733 5732 5732 5731 5730 5728 5725 5722 5720 5718 5714 5710 5706 5702 5696 5689 5685 5681 5674 5663 5655 5645 5636 5624 5612 5600 5586 5573 5562 5551 5540 5526 5517
5715 5716 5717 5718 5719 5720 5725 5722 5722 5720 5717 5717 5718 5720 5720 5720 5716 5713 5710 5707 5704 5701 5698 5695 5692 5684 5677 5674 5670 5659 5652 5641 5631 5623 5613 5601 5588 5575 5562 5550 5541 5529 5514 5502
5696 5696 5697 5700 5702 5703 5705 5706 5707 5703 5703 5702 5705 5707 5708 5707 5702 5698 5696 5693 5691 5689 5687 5685 5680 5673 5666 5664 5655 5649 5640 5630 5620 5609 5602 5594 5578 5565 5554 5542 5530 5518 5504 5493
5678 5677 5678 5679 5685 5688 5691 5688 5686 5685 5686 5688 5690 5695 5698 5696 5690 5685 5681 5678 5676 5676 5672 5672 5667 5661 5655 5652 5643 5637 5630 5622 5612 5600 5588 5576 5567 5556 5546 5533 5521 5512 5499 5487
5658 5656 5656 5662 5667 5673 5677 5668 5668 5670 5673 5676 5683 5686 5682 5678 5671 5668 5665 5662 5662 5660 5661 5658 5651 5649 5645 5635 5629 5625 5617 5610 5601 5591 5579 5567 5556 5546 5535 5524 5513 5501 5490 5478
5634 5631 5637 5644 5652 5654 5655 5652 5653 5655 5657 5662 5671 5671 5665 5661 5657 5654 5651 5648 5648 5643 5648 5641 5639 5638 5636 5623 5615 5613 5606 5598 5589 5580 5570 5560 5550 5538 5527 5515 5504 5492 5481 5470
5609 5612 5619 5627 5630 5633 5633 5634 5639 5642 5645 5650 5656 5656 5650 5646 5644 5640 5636 5633 5631 5631 5632 5627 5624 5626 5622 5611 5605 5602 5594 5586 5577 5567 5558 5548 5538 5528 5518 5508 5497 5486 5475 5466
5594 5595 5599 5602 5604 5609 5611 5617 5625 5631 5633 5637 5642 5642 5636 5632 5629 5627 5624 5621 5619 5618 5616 5612 5611 5613 5605 5598 5595 5590 5583 5575 5566 5557 5549 5539 5529 5520 5511 5501 5491 5482 5471 5463
5570 5574 5571 5578 5579 5581 5593 5607 5615 5618 5621 5623 5625 5621 5619 5617 5617 5613 5610 5609 5607 5604 5602 5601 5604 5596 5590 5586 5583 5578 5571 5563 5555 5547 5539 5530 5521 5512 5504 5497 5487 5478 5468 5461
5548 5551 5549 5547 5555 5567 5586 5599 5602 5603 5604 5606 5604 5604 5603 5603 5603 5600 5598 5596 5595 5592 5592 5591 5586 5583 5578 5575 5571 5565 5559 5552 5544 5538 5530 5521 5514 5506 5498 5491 5482 5475 5466 5460
5522 5525 5519 5527 5553 5559 5575 5579 5579 5580 5590 5587 5588 5586 5587 5588 5587 5587 5585 5583 5581 5581 5580 5573 5570 5568 5565 5562 5558 5553 5547 5541 5534 5529 5522 5514 5507 5500 5493 5486 5478 5472 5464 5459
5495 5497 5504 5530 5539 5548 5554 5560 5557 5568 5572 5572 5569 5572 5571 5572 5571 5573 5573 5572 5572 5570 5564 5561 5559 5557 5554 5550 5546 5541 5537 5531 5526 5520 5513 5506 5500 5493 5487 5481 5474 5468 5461 5456
5472 5481 5495 5510 5522 5532 5535 5539 5540 5550 5552 5554 5554 5556 5558 5557 5555 5559 5560 5562 5558 5552 5550 5549 5547 5545 5543 5539 5534 5531 5527 5521 5516 5511 5505 5498 5493 5487 5481 5476 5469 5464 5457 5453
Wind_Speed
7 6 5 6 5 3 3 4 3 4 4 4 5 6 7 8 9 11 13 15 18 22 25 28 30 34 36 38 38 40 38 41 41 43 44 47 51 55 58 61 63 67 70 73
9 9 8 7 5 3 2 4 5 4 5 6 6 7 8 9 11 13 15 18 20 23 26 29 32 34 37 40 41 43 43 44 47 49 51 53 58 61 64 63 66 68 76 78
11 11 12 12 11 9 8 8 9 10 10 11 11 11 12 13 14 15 18 20 22 24 27 32 36 38 40 41 42 44 45 45 48 50 51 57 60 62 62 66 70 73 76 79
14 13 14 15 16 14 12 13 14 15 14 16 17 17 18 18 19 20 22 25 26 29 31 34 37 40 43 44 44 45 46 48 53 56 59 61 63 62 63 65 72 75 74 81
19 18 16 17 18 18 17 16 17 19 20 20 22 22 23 23 23 24 26 29 30 32 35 37 40 42 44 45 49 48 51 53 56 58 59 62 63 63 66 66 69 74 75 75
24 23 21 21 22 22 22 21 21 22 23 24 26 26 27 26 26 28 29 31 32 35 36 39 42 42 44 46 49 50 53 56 59 59 62 64 62 62 62 63 67 71 71 74
28 29 27 26 26 27 26 26 25 25 27 28 28 29 30 30 30 31 33 34 36 37 39 42 43 44 47 50 49 48 50 55 59 60 61 63 63 65 65 63 65 66 70 69
32 32 31 30 30 30 30 30 29 29 29 31 31 32 33 32 33 35 36 38 40 39 42 42 45 48 50 49 48 50 52 56 58 59 62 62 60 66 64 62 63 67 71 72
36 35 34 33 32 32 31 32 32 32 32 33 33 34 35 36 37 37 38 41 41 43 42 45 46 48 49 51 47 47 49 53 56 57 59 59 59 61 64 69 66 68 67 66
38 38 38 37 35 35 36 35 35 35 34 35 35 36 37 39 40 40 40 41 42 41 44 44 47 48 48 47 47 45 46 53 54 55 58 61 63 65 66 68 70 68 66 61
42 42 42 41 40 39 39 40 40 38 37 39 40 41 41 41 41 40 43 42 40 42 44 45 47 48 49 48 47 43 45 51 53 54 58 63 66 65 62 66 68 62 62 60
49 47 47 46 45 45 44 43 42 43 45 44 45 45 44 41 40 43 43 40 40 43 46 47 46 44 49 51 48 43 46 51 52 57 57 61 65 66 66 65 68 65 63 64
54 53 52 49 49 49 50 48 49 50 50 52 50 47 43 42 42 45 43 40 43 43 46 48 48 48 51 48 44 38 48 50 53 56 58 64 66 69 73 68 64 61 62 68
58 58 56 56 53 52 53 49 48 51 50 46 45 45 42 43 44 43 44 46 44 48 47 47 48 50 47 43 41 41 52 50 53 56 62 64 68 68 69 71 67 64 65 68
60 61 61 59 57 58 56 54 52 52 50 46 46 46 45 44 46 48 46 45 48 50 50 47 51 43 46 44 42 45 51 51 56 59 65 68 68 68 66 65 60 62 69 61
62 61 60 63 64 62 55 49 50 50 51 51 49 48 47 46 48 46 46 45 51 52 46 46 43 46 47 46 44 51 51 53 57 60 64 67 65 65 64 62 60 64 62 55
63 64 64 62 61 64 67 69 58 49 53 50 51 55 49 50 51 48 50 49 49 48 49 43 48 46 49 47 48 51 50 52 57 61 64 65 65 67 64 60 59 64 56 54
65 66 65 65 63 61 58 57 58 56 59 56 56 58 52 48 52 58 53 49 49 48 46 47 53 53 50 44 48 50 47 51 57 61 65 67 65 63 60 57 57 59 51 54
69 69 70 68 65 63 60 61 61 56 55 58 55 49 48 53 54 53 53 55 54 51 49 53 54 52 48 44 52 47 49 53 56 60 62 64 63 62 59 56 57 55 51 54
72 74 72 68 66 63 62 61 59 57 55 54 44 33 40 46 48 50 55 57 56 58 53 53 55 57 41 44 55 48 49 53 57 60 60 62 61 61 56 54 57 51 52 51
74 75 73 70 67 66 66 64 61 61 57 50 42 39 43 51 55 56 57 57 55 54 54 59 62 52 41 52 51 47 49 53 59 61 60 62 60 60 54 51 52 48 51 43
73 73 71 71 71 69 68 66 62 57 59 56 48 49 53 54 53 55 51 51 54 57 59 58 54 38 44 51 49 46 49 54 59 60 60 60 56 55 51 50 48 46 48 37
74 67 70 74 74 75 71 65 59 54 53 54 57 60 56 55 54 52 52 51 51 54 50 48 41 40 46 48 46 46 52 55 59 58 59 57 53 52 48 47 44 45 42 32
76 75 74 76 74 75 67 61 55 53 54 53 58 56 55 54 49 55 56 54 56 57 58 48 44 43 45 44 45 48 54 56 58 56 57 54 49 48 45 44 41 42 38 27
80 80 85 84 64 67 60 58 59 59 48 54 54 52 50 50 49 48 50 55 55 53 50 47 46 46 44 44 45 50 54 55 56 54 55 49 46 45 41 41 38 40 35 24
77 81 81 73 71 59 59 57 60 54 56 56 55 51 52 50 51 52 53 54 51 47 47 47 46 45 45 47 48 51 54 56 54 52 52 45 43 42 38 38 36 36 32 23
60 73 72 71 66 60 62 65 63 58 57 55 54 53 51 52 53 51 49 47 46 49 49 48 49 47 47 48 50 52 54 54 50 50 49 41 39 39 36 35 34 34 30 23
Wind_Direction
222 216 198 172 157 119 83 60 57 48 31 13 2 357 347 333 326 323 321 321 317 315 313 313 315 317 317 318 316 315 316 313 313 310 313 313 313 312 311 310 312 308 307 302
238 233 226 228 225 226 274 296 299 309 309 315 322 324 323 326 325 320 317 315 312 311 310 310 313 317 320 317 316 314 314 314 312 313 315 312 311 311 309 310 306 307 304 306
259 254 244 245 245 253 268 278 280 282 284 286 297 301 304 311 311 313 315 317 316 315 313 312 314 316 318 317 317 315 315 315 312 313 313 310 310 310 311 309 307 305 307 306
256 262 262 254 254 258 267 273 274 274 280 285 291 296 298 301 303 305 310 315 318 318 316 315 317 319 318 316 316 314 312 312 310 311 311 310 310 310 308 306 307 307 305 306
259 260 265 265 263 262 265 267 271 276 279 283 285 290 294 299 304 307 309 311 314 316 315 314 317 317 315 314 313 312 310 309 310 310 309 308 310 311 308 307 306 307 310 310
270 266 266 269 270 270 268 266 268 273 276 279 283 288 293 299 303 307 309 309 312 315 313 313 315 314 312 311 311 310 309 308 308 310 311 311 311 313 309 311 312 312 313 312
278 278 276 276 277 276 275 272 270 270 272 276 281 286 291 296 301 306 308 307 310 312 312 312 312 312 311 309 309 308 308 309 310 312 312 314 318 315 314 315 317 318 314 317
278 279 281 283 282 280 279 277 274 273 273 277 280 284 288 295 301 305 306 307 309 309 309 310 310 309 309 308 310 311 312 312 311 313 313 313 317 315 318 318 318 318 320 318
280 279 279 280 280 280 280 279 277 276 277 277 280 285 290 295 298 301 303 306 307 308 307 309 309 309 310 311 314 314 312 310 313 317 318 321 320 320 319 320 324 322 319 320
277 278 279 279 279 280 281 278 277 278 280 282 284 287 290 293 295 297 300 305 306 304 307 307 306 308 310 309 314 316 312 312 319 321 322 324 325 326 325 324 323 325 320 319
276 277 278 279 279 279 279 279 278 278 280 283 285 286 288 290 291 294 299 304 303 303 304 305 307 307 309 311 314 312 309 310 319 321 325 325 329 330 322 325 327 320 320 319
276 276 276 277 278 278 276 276 276 279 281 281 282 285 286 285 286 292 296 299 299 301 305 305 307 308 308 311 310 305 306 313 323 324 328 325 328 327 327 326 326 325 320 318
275 276 276 276 278 279 273 272 275 276 279 282 281 280 279 279 285 290 291 291 293 296 304 305 306 309 308 309 309 308 308 316 324 326 328 327 328 327 332 329 325 320 317 317
273 275 275 275 274 280 274 272 273 273 276 278 281 278 272 275 281 282 282 288 288 296 301 306 307 309 305 305 308 310 307 317 319 326 328 326 329 329 330 330 327 323 319 317
273 271 271 272 270 271 270 276 275 272 271 269 272 272 268 273 278 280 280 281 286 294 299 302 304 302 301 299 306 310 309 316 321 326 327 329 330 330 329 328 325 320 317 319
274 273 272 271 267 267 261 269 268 259 257 264 265 265 264 269 272 272 275 282 287 296 299 300 304 299 299 308 309 308 316 318 322 325 328 330 330 330 329 327 321 322 324 325
273 273 273 270 271 268 271 268 263 261 263 257 258 264 266 267 268 269 276 282 291 295 296 295 304 300 295 303 308 306 319 320 322 324 326 328 331 332 330 325 324 327 326 325
269 269 269 271 269 268 269 274 278 280 267 267 267 270 271 268 270 277 282 285 294 298 291 293 302 303 300 308 302 307 318 321 322 323 325 329 333 331 327 325 326 328 324 326
266 264 264 265 268 270 273 278 279 279 274 270 269 275 278 279 280 282 282 290 296 292 294 297 299 302 301 302 296 312 319 319 321 323 325 330 331 329 329 328 329 328 328 331
263 261 262 264 266 267 266 268 274 278 283 283 282 280 280 280 291 292 292 293 293 293 296 294 298 302 298 297 294 310 315 319 321 323 327 330 329 329 330 330 332 329 333 335
260 263 263 263 262 261 262 263 266 269 276 282 278 282 279 286 286 283 287 289 287 289 292 295 300 298 295 286 295 309 314 318 320 324 328 329 330 331 331 332 332 332 333 337
261 262 261 259 258 258 257 257 262 266 270 276 283 281 282 283 281 288 283 284 289 295 295 296 301 302 288 288 300 309 313 318 319 324 327 329 330 331 331 334 332 333 334 337
255 252 254 257 255 256 256 259 264 268 274 276 275 276 277 278 284 283 285 288 294 295 295 299 305 292 288 293 304 311 313 316 318 323 327 328 330 330 331 334 332 332 336 336
247 248 245 247 251 258 262 266 267 267 267 271 272 277 276 276 282 284 284 286 291 292 298 303 299 296 295 298 306 309 310 315 318 322 326 327 328 330 329 333 332 332 337 330
244 243 241 250 254 259 262 262 260 261 262 270 276 276 274 276 279 277 282 285 286 291 299 300 295 297 299 301 307 306 308 313 316 321 324 326 325 329 327 330 330 331 335 326
245 242 243 244 249 254 253 257 260 262 263 267 271 275 277 277 276 276 279 284 290 295 293 292 292 295 297 301 303 302 308 310 314 319 321 323 323 327 325 328 328 329 333 324
249 246 243 245 245 240 249 255 258 256 258 263 265 267 272 275 276 280 285 288 288 288 289 290 291 295 295 299 299 300 305 308 313 317 319 320 320 324 323 326 326 327 330 324